Theta_e
314 314 314 314 314 314 314 315 316 318 319 320 320 321 323 324 328 336 338 339 342 345 346 345 340 340 343 343 344 344 345 347 344 343 345 344 344 343 343 345 345 346 344 344 344
314 314 314 314 314 314 314 315 316 318 318 320 321 322 324 326 334 337 340 341 345 347 345 346 342 341 342 344 349 345 345 345 342 339 344 344 343 343 343 343 346 345 346 345 345
315 315 315 315 315 314 315 315 316 317 318 320 322 322 325 333 339 340 340 343 344 345 348 350 347 343 342 344 347 349 347 347 343 340 344 344 344 343 342 344 345 346 345 345 345
315 315 315 315 315 315 315 315 315 317 318 319 321 324 326 331 338 340 341 343 343 339 342 343 345 342 342 343 345 351 349 350 347 342 343 344 344 343 342 343 342 342 343 345 345
315 315 315 315 315 315 315 315 315 316 317 319 321 324 326 329 337 338 341 341 343 341 343 343 345 344 344 345 346 348 347 343 344 342 344 345 344 343 342 344 343 343 345 346 346
315 315 315 315 315 316 316 316 316 316 317 318 320 322 325 329 338 339 339 342 342 343 340 343 348 349 345 344 346 341 344 341 342 342 344 345 344 344 344 344 343 344 345 346 345
315 315 315 315 315 316 316 316 316 316 316 317 318 319 323 333 335 343 337 339 343 344 344 342 346 348 351 346 342 342 340 340 340 343 344 345 346 344 344 343 344 345 346 346 346
317 316 315 315 315 316 316 316 316 316 316 317 317 317 325 332 335 337 342 338 340 344 347 346 350 350 351 345 340 339 339 343 341 342 343 342 344 343 344 344 345 346 346 347 346
317 317 316 316 315 316 316 317 317 316 316 317 317 317 323 331 334 335 340 340 338 340 344 348 348 348 346 340 343 338 340 341 343 341 343 341 342 342 344 343 344 345 345 346 346
313 316 317 316 316 316 321 326 323 318 316 316 316 319 325 332 334 336 337 339 340 342 343 344 347 343 335 342 346 344 341 339 341 342 344 343 341 342 343 343 342 343 344 345 345
309 313 316 317 316 317 323 325 324 322 318 318 318 319 328 328 330 335 337 339 341 345 344 345 342 342 340 340 343 343 340 340 339 340 343 343 341 343 342 342 342 342 342 343 343
309 310 314 317 316 320 323 323 321 321 320 322 323 323 322 321 321 328 335 339 342 345 338 334 339 338 337 336 338 339 339 337 337 341 340 340 342 342 341 341 341 341 342 342 343
309 310 313 316 316 322 322 322 322 321 319 321 322 322 323 323 323 325 333 341 342 343 339 338 336 337 337 335 332 332 336 338 339 342 338 339 340 344 342 342 341 341 342 342 343
309 310 312 316 317 321 322 323 321 322 313 317 321 323 322 323 323 324 327 331 331 328 328 334 334 337 335 332 330 330 331 335 341 342 344 338 345 338 342 342 341 341 342 342 342
310 311 312 316 317 319 322 323 321 322 317 320 321 322 323 323 323 324 325 327 329 332 331 331 332 331 329 328 328 330 330 328 331 339 336 340 340 338 338 342 342 341 341 341 342
312 311 312 316 317 319 321 321 322 314 317 319 320 317 321 323 323 325 324 326 327 327 326 328 328 328 327 329 329 329 329 324 322 326 337 335 339 337 341 340 340 340 341 342 342
314 312 314 316 319 320 321 322 313 315 317 319 318 316 317 318 320 318 325 325 325 328 327 325 326 327 329 329 328 327 325 328 331 329 335 328 339 337 334 338 339 339 339 341 342
317 318 319 319 318 320 320 313 317 319 319 317 317 315 318 316 319 317 320 321 319 322 321 324 327 326 327 328 330 327 325 327 333 330 330 328 334 333 329 330 337 340 340 341 341
321 322 322 321 320 320 319 310 312 317 318 317 316 317 316 316 318 317 317 317 320 319 321 323 323 324 326 326 328 328 328 325 324 321 325 326 326 328 328 329 332 339 340 339 340
323 323 322 323 322 321 310 311 315 315 317 318 319 317 317 316 318 316 319 318 317 318 317 320 321 320 322 326 326 326 324 327 322 331 331 328 328 330 330 329 335 336 338 339 340
324 324 323 321 321 320 313 314 316 319 319 318 318 318 319 320 318 318 317 318 320 319 316 318 317 320 320 325 324 322 326 323 321 322 327 329 329 325 329 328 328 333 338 340 339
324 320 322 323 318 310 313 313 317 317 318 316 318 318 319 319 320 318 321 320 321 319 323 316 313 317 321 319 318 322 323 320 321 324 322 323 327 326 327 326 326 332 337 339 340
323 323 321 321 313 311 311 314 316 315 315 316 318 316 316 319 321 317 320 320 321 320 324 323 316 317 318 318 319 320 320 321 317 317 322 325 326 324 323 324 326 328 331 334 339
318 314 314 314 313 311 311 313 315 317 316 318 317 317 317 318 317 320 320 320 320 321 323 322 314 316 317 319 319 320 321 321 319 319 320 322 326 324 323 323 324 326 328 329 332
310 312 311 306 308 310 310 311 315 316 316 317 317 316 317 317 316 318 318 317 319 320 320 318 322 316 318 319 320 319 320 320 321 319 322 322 322 322 322 322 324 325 328 330 333
310 311 312 311 311 309 309 312 315 315 315 315 317 316 316 317 317 317 317 316 318 318 319 315 321 321 322 322 321 323 322 322 321 322 319 319 320 320 322 322 323 325 325 328 331
307 310 313 310 310 308 308 312 312 313 313 315 315 314 316 316 313 314 316 316 316 316 317 316 317 319 322 321 321 324 323 321 321 320 321 324 322 323 329 329 329 329 329 328 329
Wind_Speed
11 11 10 10 9 8 7 7 6 6 7 7 7 7 8 10 8 6 7 4 9 10 13 7 4 11 8 2 3 3 3 1 3 5 3 17 5 12 6 15 4 9 5 20 23
11 11 10 10 10 9 9 8 7 7 7 7 8 9 10 13 3 7 5 9 10 11 11 7 6 4 3 1 1 3 3 4 4 3 6 20 14 15 5 13 3 6 8 24 23
13 12 11 10 10 10 9 10 9 8 8 8 7 10 11 8 0 2 6 11 11 8 8 9 4 3 3 4 3 1 3 1 3 4 20 17 10 8 16 2 7 16 23 26 23
13 13 13 12 10 10 10 10 10 9 8 8 8 9 10 5 1 2 8 10 12 7 8 8 6 3 1 0 2 3 10 8 3 9 19 15 18 8 16 4 13 19 24 25 24
14 14 13 13 12 11 10 10 11 10 9 8 8 8 9 6 3 4 8 12 15 14 7 7 2 2 4 2 3 4 5 9 8 9 13 18 8 6 15 3 12 23 25 26 25
15 14 14 13 13 12 10 11 11 11 10 9 8 7 8 3 2 5 9 13 15 15 12 6 4 10 6 3 3 4 6 12 3 10 16 11 6 11 10 10 21 25 26 25 24
15 15 15 15 14 13 12 12 12 11 10 10 9 8 10 10 4 5 11 13 14 14 14 6 8 6 10 4 6 5 5 5 3 8 5 16 1 5 12 19 25 28 27 27 26
16 16 16 15 14 12 12 13 11 11 11 10 9 8 7 8 7 7 9 14 14 14 12 7 8 8 6 8 4 4 3 2 4 6 9 6 5 6 20 25 25 28 28 28 29
16 15 15 14 13 11 11 11 10 9 9 9 8 6 8 7 13 11 11 14 14 13 12 10 11 4 4 2 5 5 3 5 2 10 6 5 3 5 24 25 22 27 29 31 30
16 15 14 13 11 9 7 4 2 5 7 8 10 3 14 6 8 12 12 17 7 3 4 4 3 2 4 4 3 6 4 6 5 6 6 7 5 5 24 24 24 27 29 30 31
17 15 13 12 10 5 4 2 2 2 7 8 5 5 1 6 12 7 11 16 11 2 4 4 2 6 10 8 7 5 5 10 9 6 5 11 6 9 22 20 19 24 29 34 34
18 14 11 10 7 3 6 5 7 6 9 13 25 28 27 13 7 11 9 12 6 6 5 2 7 11 5 4 7 6 8 8 5 5 8 6 9 6 16 26 31 29 31 35 34
19 14 9 7 3 5 5 6 8 7 2 10 11 15 22 16 16 16 18 13 6 4 6 7 9 3 1 4 6 4 5 5 5 2 3 5 5 5 8 18 23 27 34 35 36
19 14 7 4 4 4 5 5 8 5 5 7 4 2 6 10 9 27 19 8 3 10 6 7 6 6 4 5 5 4 5 5 3 4 3 2 5 6 9 16 14 28 29 38 38
18 12 4 2 1 3 3 3 6 1 3 4 1 2 3 9 2 9 25 15 8 7 6 10 4 6 6 7 7 9 3 6 5 4 3 1 3 5 5 10 17 26 32 38 40
16 8 1 1 1 4 2 3 2 6 4 7 4 6 1 6 4 4 9 18 7 4 3 6 1 4 7 5 6 1 2 6 5 3 2 5 6 4 6 9 14 22 31 39 35
12 8 5 3 2 0 1 2 5 4 5 8 5 6 2 5 5 6 4 4 5 3 4 4 4 4 3 3 1 4 6 4 4 4 6 2 3 9 8 7 15 21 32 43 40
13 15 12 8 4 1 3 5 2 1 3 4 5 5 5 7 3 8 3 4 6 3 2 2 10 4 2 6 4 4 7 5 4 3 6 2 5 8 7 13 25 27 35 42 39
13 13 13 10 8 6 0 4 3 3 4 5 8 5 6 6 6 6 6 3 3 2 2 4 7 3 6 7 8 3 3 4 5 3 2 4 8 10 4 4 2 19 21 30 38
7 8 13 8 9 9 5 2 1 4 5 2 1 5 6 7 7 6 3 4 7 2 2 2 5 3 5 0 1 5 6 2 2 2 5 4 5 7 11 12 2 7 21 29 37
1 3 12 8 10 7 4 2 4 5 5 1 2 2 1 3 2 3 5 2 7 9 2 1 2 7 3 2 2 4 2 3 5 5 6 3 6 7 7 8 9 7 22 28 34
3 3 11 4 7 4 2 4 6 7 11 6 3 4 3 2 3 2 2 2 13 6 3 4 4 4 8 6 4 3 3 4 5 4 3 5 7 6 9 7 10 18 17 27 35
4 4 13 3 3 4 6 4 3 9 6 7 5 4 4 2 2 4 4 5 17 7 3 3 2 4 10 6 6 5 3 3 3 2 5 5 6 1 6 8 14 19 25 26 30
5 4 9 13 8 3 5 4 6 10 3 7 5 5 5 3 4 1 3 3 14 8 9 3 1 6 7 5 2 5 3 4 3 1 2 5 4 10 9 9 16 25 26 27 24
9 5 5 4 6 5 2 4 4 7 8 10 3 6 4 4 6 2 2 5 9 3 5 3 3 4 4 7 4 6 9 7 7 7 5 5 7 12 6 9 17 25 24 18 18
7 7 7 3 6 5 4 3 3 4 3 5 3 8 5 4 3 4 2 3 6 4 2 2 4 1 4 9 7 7 11 9 9 7 8 8 9 4 15 20 18 30 25 20 18
16 9 5 4 4 2 1 2 4 10 7 11 7 8 5 2 16 20 24 23 15 6 3 3 4 2 5 4 7 10 10 9 6 6 5 5 2 10 15 16 23 32 34 29 29
Wind_Direction
13 14 8 1 357 349 341 332 331 326 326 327 330 331 332 322 307 244 233 244 211 183 178 164 113 155 171 143 108 95 64 189 214 162 185 150 129 151 144 145 138 183 168 167 164
6 2 3 357 348 343 335 325 320 314 315 316 323 325 338 330 280 227 232 201 196 197 189 178 127 126 246 156 81 83 108 232 211 198 160 166 142 160 131 153 94 152 167 166 169
357 354 350 350 343 335 330 322 313 308 308 309 317 323 338 355 259 164 213 199 187 177 179 192 218 245 315 0 345 351 211 238 296 168 155 156 144 154 133 273 193 166 159 170 175
349 346 342 337 337 328 321 316 308 300 299 301 308 318 335 339 290 198 210 192 187 174 161 170 191 250 114 342 243 312 253 247 346 158 156 164 151 140 160 220 214 177 168 177 185
339 337 334 331 327 326 312 304 303 295 287 287 297 314 333 318 290 221 215 201 194 198 172 164 142 348 305 208 181 196 282 318 254 172 156 150 164 172 196 279 176 175 178 188 192
332 330 328 326 323 318 312 296 287 289 280 277 283 295 306 296 296 243 229 224 220 205 194 203 23 337 290 271 168 255 269 302 202 173 151 148 158 151 204 199 171 181 187 195 201
329 325 323 322 321 316 312 295 278 277 273 269 271 278 277 265 269 229 234 247 230 224 215 271 319 293 317 290 334 301 3 357 43 130 151 121 108 219 186 183 176 188 194 202 208
328 324 322 319 316 316 311 295 281 266 266 266 267 275 260 256 240 223 226 232 235 238 229 228 311 313 240 297 5 59 80 309 210 161 158 140 253 204 175 179 183 192 201 208 213
324 321 320 318 314 318 313 298 279 264 253 255 259 251 269 242 246 246 215 230 240 241 248 253 292 280 296 56 13 21 268 247 246 194 140 172 254 197 180 187 192 199 207 214 220
321 319 318 317 314 325 331 325 288 235 225 230 237 259 250 252 244 251 220 211 207 190 212 226 242 20 15 69 270 253 238 271 235 207 180 177 231 170 187 188 205 208 213 219 225
325 316 316 316 314 341 353 170 296 293 241 225 255 250 344 229 250 238 224 213 221 257 176 169 60 258 261 207 248 263 240 246 261 201 157 211 202 194 191 203 212 224 220 221 226
330 318 314 313 313 130 76 86 45 317 301 265 262 264 257 253 310 225 203 182 172 211 142 65 230 247 240 246 253 281 284 280 284 192 177 177 233 206 186 205 208 220 229 227 230
334 323 316 314 311 158 122 49 9 352 279 288 260 257 257 251 243 240 198 190 179 178 201 191 242 64 247 301 268 249 224 271 240 91 48 107 300 199 220 218 218 226 232 236 232
332 327 319 324 151 176 163 359 350 344 52 280 271 268 226 213 266 243 223 202 201 218 197 223 273 232 241 232 213 317 253 255 162 107 220 144 268 242 203 212 213 224 225 237 240
333 337 322 162 202 165 207 286 321 236 16 329 331 338 200 185 260 222 225 214 199 202 122 247 220 222 265 243 167 237 323 294 323 124 88 168 307 268 155 224 219 223 226 233 238
346 0 33 160 184 154 218 283 168 45 258 332 347 349 129 241 276 2 178 212 243 182 259 253 253 209 217 230 205 280 150 43 43 78 360 221 174 265 180 213 220 222 224 235 233
12 51 74 79 132 159 340 164 44 127 341 320 325 6 347 334 357 27 147 110 183 165 276 337 245 265 202 283 148 87 54 333 1 14 227 7 116 247 248 236 218 209 208 226 231
67 75 73 65 45 346 332 55 127 325 317 314 329 326 54 4 21 340 46 93 28 87 130 194 299 192 173 204 208 189 156 162 234 223 257 70 236 263 235 256 244 220 212 217 221
87 74 58 49 39 15 31 66 184 215 288 317 328 41 344 356 17 40 32 27 35 49 174 177 271 263 196 225 144 206 190 196 109 24 42 242 287 300 264 278 280 211 212 205 217
98 69 32 16 5 1 73 181 232 227 311 359 311 31 5 336 28 28 26 4 333 335 43 239 304 265 299 339 226 161 170 85 12 221 268 284 285 248 310 297 239 207 205 210 217
331 56 2 357 359 36 100 226 287 313 341 337 350 7 42 360 299 312 7 24 358 313 9 73 117 289 344 195 159 350 263 55 126 148 178 233 265 225 258 283 297 254 217 212 219
60 54 6 8 42 39 56 314 337 325 3 18 73 15 3 336 309 298 112 29 354 319 10 335 158 255 239 279 311 182 207 159 139 249 207 162 263 271 254 297 300 290 260 231 224
43 19 19 66 70 354 323 321 353 8 8 12 15 23 10 342 303 56 26 335 2 27 17 321 319 352 343 357 4 54 326 95 113 75 206 149 270 198 292 305 302 273 282 264 238
24 26 24 56 59 75 358 335 324 358 71 1 19 58 4 345 11 307 329 340 331 334 349 144 174 187 208 228 210 295 268 320 121 125 226 222 267 305 317 326 325 330 322 298 255
36 53 17 343 354 359 348 353 353 357 351 355 46 43 340 293 335 333 6 326 303 244 10 91 244 215 253 266 226 240 254 241 230 216 198 261 209 273 336 306 302 324 338 315 254
50 8 351 342 327 345 3 24 18 352 314 312 52 337 326 258 172 276 317 220 229 279 61 339 252 135 284 294 284 265 258 237 229 258 245 236 274 242 322 335 327 328 326 321 294
31 5 342 336 343 32 287 55 318 326 272 252 357 335 267 263 316 288 275 257 249 234 238 226 197 157 248 244 303 300 257 207 205 213 210 218 286 355 341 334 320 309 306 312 312